Home > Weather > Louisville > Past weeks

Flag for USA Past Weather in Louisville, Kentucky, USA — Yesterday and Last 2 Weeks

Now
75 °F

Light rain. Mostly cloudy.


Feels Like: 74 °F
Forecast: 73 / 82 °F
Wind: 6 mph from Southwest

Location: Standiford Field

Current Time: Jul 28, 2016 at 10:30:37 AM

Latest Report: Jul 28, 2016 at 9:56 AM


Visibility: 8 mi

Pressure: 29.89 "Hg

Humidity: 90%

Dew Point: 72 °F

Location of LouisvilleLocation

Past Weather in Louisville — Graph

°F

Louisville Temperature Yesterday

Maximum temperature yesterday: 92 °F (at 4:56 PM)
Minimum temperature yesterday: 76 °F (at 5:56 AM)
Average temperature yesterday: 83 °F

High & Low Weather Summary for the Past Weeks

 TemperatureHumidityPressure
High95 °F (Jul 23, 5:56 PM)94% (Jul 28, 3:56 AM)30.26 "Hg (Jul 28, 3:56 AM)
Low71 °F (Jul 15, 6:56 AM)38% (Jul 16, 3:56 PM)29.88 "Hg (Jul 28, 4:56 AM)
Average82 °F68%30.03 "Hg
* Reported Jul 13 8:56 AM — Jul 28 8:56 AM, Louisville, Weather by CustomWeather, © 2016

Note: Actual official high and low records may vary slightly from our data, if they occured in-between our weather recording intervals... More about our weather records

Advertising

Louisville Weather History for the Previous 24 Hours

Scroll right to see more
 ConditionsComfort  
Time TempWeatherWind HumidityBarometerVisibility
8:56 AM
Thu, Jul 28
75 °FLight rain. Fog.6 mph90%29.89 "Hg6 mi
7:56 AM76 °FLight rain. Mostly cloudy.7 mph88%29.91 "Hg7 mi
6:56 AM75 °FLight rain. Overcast.5 mph90%29.90 "Hg8 mi
5:56 AM76 °FMostly cloudy.5 mph91%29.89 "Hg10 mi
4:56 AM76 °FLight rain. Overcast.7 mph88%29.88 "Hg10 mi
3:56 AM75 °FLight rain. Mostly cloudy.8 mph94%29.88 "Hg7 mi
2:56 AM77 °FThunderstorms. Fog.No wind90%29.89 "Hg5 mi
1:56 AM78 °FThunderstorms. Fog.10 mph87%29.90 "Hg5 mi
12:56 AM79 °FOvercast.No wind82%29.91 "Hg9 mi
11:56 PM
Wed, Jul 27
80 °FThunderstorms. Overcast.3 mph79%29.92 "Hg9 mi
10:56 PM80 °FThunderstorms. Overcast.5 mph76%29.91 "Hg10 mi
9:56 PM81 °FMostly cloudy.5 mph77%29.92 "Hg9 mi
8:56 PM80 °FMostly cloudy.No wind79%29.89 "Hg7 mi
7:56 PM78 °FLight rain. Cloudy.8 mph84%29.88 "Hg6 mi
6:56 PM87 °FThunderstorms. Mostly cloudy.7 mph57%29.90 "Hg9 mi
5:56 PM92 °FThunderstorms. Partly sunny.6 mph51%29.91 "Hg9 mi
4:56 PM92 °FPartly sunny.7 mph49%29.90 "Hg9 mi
3:56 PM90 °FCloudy.7 mph56%29.93 "Hg8 mi
2:56 PM90 °FCloudy.No wind54%29.95 "Hg8 mi
1:56 PM90 °FCloudy.6 mph59%29.96 "Hg7 mi
12:56 PM87 °FCloudy.8 mph61%29.98 "Hg7 mi
11:56 AM87 °FBroken clouds.3 mph63%29.97 "Hg7 mi
10:56 AM87 °FPartly sunny.5 mph65%29.99 "Hg7 mi
Weather by CustomWeather, © 2016

See weather overviewHow to use our weather pages